Content
SEND FEEDBACK

Daily
Averages
Monthly
Summary
Germany

LUBECK, GERMANY


Home > Europe > Germany
Elevation: 56 feet     Latitude: 54 00N     Longitude: 011 12E

WEATHER
 
SELECT A DAY
Number of Records: 63,927;   Date Range: 7/3/96 - 10/24/14
 
SHARE

PRINT THIS DATA

[ ← Previous Day ]
WEATHER ALMANAC - MARCH 19, 2013
[ Next Day → ]
[ °C ]   °F
Weather ElementAverageHighLow
Temperature31.1 °F33.8 °F (11:50 am)28.4 °F (7:20 pm)
Dewpoint30.8 °F32 °F (10:20 am)28.4 °F (7:20 am)
Humidity98.7 %100 % (8:20 am)93 % (7:20 am)
Barometer29.52 in29.62 in (7:50 pm)29.47 in (7:20 am)
Wind Speed12.7 mph17.3 mph (3:20 pm)
Wind Gust28.8 mph (4:50 pm)
Weather ElementAverage
Visibility1.2 mi
Wind DirectionNNE (28.1 °)

Weather ElementTotal
Precipitation---
Heating Degree Days33.9 (Base 65)
Averaged from 26 records on March 19, 2013
WEATHER CONDITIONS BREAKOUT
WIND DIRECTION BREAKOUT
WEATHER BY HOUR - MARCH 19, 2013
[ °C ]   °F
Local TimeTemperatureDewpointHumidityBarometerVisibilityWind DirectionWind SpeedGust SpeedPrecipitationEventsConditions
7:20 AM30.2 °F28.4 °F93 %29.47 in1.9 miNE (40°)6.9 mphSnowLight Snow
7:50 AM30.2 °F28.4 °F93 %29.47 in1.6 miNE (40°)6.9 mphSnowLight Snow
8:20 AM30.2 °F30.2 °F100 %29.47 in1.2 miNNE (30°)4.6 mphSnowSnow
8:50 AM30.2 °F30.2 °F100 %29.47 in2.5 miNNE (30°)5.8 mphSnowLight Snow
9:20 AM32.0 °F30.2 °F93 %29.47 in2.5 miNNE (30°)5.8 mphSnowLight Snow
9:50 AM32.0 °F30.2 °F93 %29.47 in1.2 miNorth (10°)9.2 mphSnowLight Snow
10:20 AM32.0 °F32.0 °F100 %29.47 in1.2 miNorth (10°)8.1 mphSnowLight Snow
10:50 AM32.0 °F32.0 °F100 %29.47 in1.2 miNNE (20°)12.7 mphSnowLight Snow
11:20 AM32.0 °F32.0 °F100 %29.47 in1.2 miNNE (30°)15.0 mphSnowLight Snow
11:50 AM33.8 °F32.0 °F93 %29.50 in1.2 miNNE (30°)15.0 mphSnowLight Snow
12:20 PM32.0 °F32.0 °F100 %29.50 in1.2 miNNE (30°)15.0 mphSnowLight Snow
12:50 PM32.0 °F32.0 °F100 %29.50 in1.2 miNNE (30°)11.5 mph24.2 mphSnowLight Snow
1:20 PM32.0 °F32.0 °F100 %29.50 in1.2 miNNE (30°)16.1 mphSnowLight Snow
1:50 PM32.0 °F32.0 °F100 %29.50 in1.2 miNNE (30°)15.0 mphSnowLight Snow
2:20 PM32.0 °F32.0 °F100 %29.50 in1.2 miNNE (20°)12.7 mphSnowLight Snow
2:50 PM32.0 °F32.0 °F100 %29.53 in0.9 miNNE (30°)13.8 mphSnowLight Snow
3:20 PM32.0 °F32.0 °F100 %29.53 in1.2 miNNE (30°)17.3 mphSnowLight Snow
3:50 PM32.0 °F32.0 °F100 %29.53 in1.2 miNNE (30°)16.1 mphSnowLight Snow
4:20 PM30.2 °F30.2 °F100 %29.53 in0.7 miNNE (30°)16.1 mphSnowLight Snow
4:50 PM30.2 °F30.2 °F100 %29.56 in0.7 miNNE (30°)17.3 mph28.8 mphSnowLight Snow
5:20 PM30.2 °F30.2 °F100 %29.56 in1.2 miNNE (30°)17.3 mphSnowLight Snow
5:50 PM30.2 °F30.2 °F100 %29.56 in1.2 miNNE (30°)16.1 mphSnowLight Snow
6:20 PM30.2 °F30.2 °F100 %29.59 in0.9 miNNE (30°)16.1 mphSnowLight Snow
6:50 PM30.2 °F30.2 °F100 %29.59 in0.9 miNNE (30°)13.8 mphSnowLight Snow
7:20 PM28.4 °F28.4 °F100 %29.59 in0.9 miNNE (30°)13.8 mphSnowLight Snow
7:50 PM28.4 °F28.4 °F100 %29.62 in0.9 miNNE (20°)11.5 mphSnowLight Snow
Hourly data recorded from EDHL, located miles away from Lubeck, Germany







STORIES FROM OUR PARTNERS